| time (UTC) | temp F | wind direction | speed MPH | gust MPH | rain 1hr in | rain 24hr in | rain mn in | humidity % | barometer mb |
| 20260902194608 | 97 | 114 | 1.0 | 10.0 | 0.00 | 0.00 | 0.00 | 46 | 1014.3 |
| 20260902194040 | 97 | 87 | 2.0 | 10.0 | 0.00 | 0.00 | 0.00 | 46 | 1014.3 |
| 20260902193540 | 97 | 67 | 2.0 | 10.0 | 0.00 | 0.00 | 0.00 | 47 | 1014.5 |
| 20260902193108 | 97 | 105 | 2.0 | 5.0 | 0.00 | 0.00 | 0.00 | 47 | 1014.6 |
| 20260902192539 | 96 | 128 | 1.0 | 5.0 | 0.00 | 0.00 | 0.00 | 47 | 1014.6 |
| 20260902192040 | 97 | 97 | 1.0 | 4.0 | 0.00 | 0.00 | 0.00 | 47 | 1014.7 |
| 20260902191634 | 97 | 65 | 1.0 | 4.0 | 0.00 | 0.00 | 0.00 | 49 | 1014.8 |
| 20260902191040 | 97 | 0 | 0.0 | 4.0 | 0.00 | 0.00 | 0.00 | 49 | 1014.9 |
| 20260902190540 | 97 | 309 | 1.0 | 3.0 | 0.00 | 0.00 | 0.00 | 48 | 1015.0 |
| 20260902190101 | 96 | 314 | 0.0 | 8.0 | 0.00 | 0.00 | 0.00 | 49 | 1015.1 |
| 20260902185540 | 96 | 56 | 0.0 | 8.0 | 0.00 | 0.00 | 0.00 | 49 | 1015.1 |
| 20260902185042 | 96 | 60 | 1.0 | 8.0 | 0.00 | 0.00 | 0.00 | 49 | 1015.3 |
| 20260902184606 | 96 | 336 | 2.0 | 7.0 | 0.00 | 0.00 | 0.00 | 48 | 1015.4 |
| 20260902184037 | 96 | 65 | 2.0 | 5.0 | 0.00 | 0.00 | 0.00 | 48 | 1015.4 |
| 20260902183541 | 96 | 53 | 1.0 | 4.0 | 0.00 | 0.00 | 0.00 | 49 | 1015.5 |
| 20260902183129 | 95 | 285 | 0.0 | 5.0 | 0.00 | 0.00 | 0.00 | 51 | 1015.6 |
| 20260902182540 | 95 | 95 | 1.0 | 7.0 | 0.00 | 0.00 | 0.00 | 51 | 1015.7 |
| 20260902182041 | 95 | 70 | 2.0 | 8.0 | 0.00 | 0.00 | 0.00 | 50 | 1015.9 |
| 20260902181613 | 95 | 36 | 2.0 | 8.0 | 0.00 | 0.00 | 0.00 | 52 | 1016.0 |
| 20260902181039 | 95 | 94 | 3.0 | 4.0 | 0.00 | 0.00 | 0.00 | 51 | 1016.1 |
| 20260902180539 | 95 | 0 | 0.0 | 1.0 | 0.00 | 0.00 | 0.00 | 53 | 1016.2 |
| 20260902180109 | 95 | 302 | 0.0 | 4.0 | 0.00 | 0.00 | 0.00 | 53 | 1016.4 |
| 20260902175540 | 95 | 0 | 0.0 | 4.0 | 0.00 | 0.00 | 0.00 | 53 | 1016.5 |
| 20260902175040 | 94 | 350 | 0.0 | 5.0 | 0.00 | 0.00 | 0.00 | 55 | 1016.5 |
| 20260902174558 | 93 | 93 | 1.0 | 7.0 | 0.00 | 0.00 | 0.00 | 55 | 1016.6 |
| 20260902174044 | 92 | 81 | 2.0 | 7.0 | 0.00 | 0.00 | 0.00 | 54 | 1016.7 |
| 20260902173541 | 92 | 103 | 3.0 | 6.0 | 0.00 | 0.00 | 0.00 | 55 | 1016.7 |
| 20260902173108 | 92 | 53 | 1.0 | 6.0 | 0.00 | 0.00 | 0.00 | 56 | 1016.8 |
| 20260902172540 | 92 | 67 | 0.0 | 7.0 | 0.00 | 0.00 | 0.00 | 57 | 1016.9 |
| 20260902172041 | 91 | 82 | 3.0 | 7.0 | 0.00 | 0.00 | 0.00 | 58 | 1017.0 |
| 20260902171618 | 91 | 64 | 1.0 | 7.0 | 0.00 | 0.00 | 0.00 | 57 | 1017.0 |
| 20260902171041 | 91 | 317 | 4.0 | 7.0 | 0.00 | 0.00 | 0.00 | 57 | 1017.2 |
| 20260902170540 | 91 | 0 | 1.0 | 5.0 | 0.00 | 0.00 | 0.00 | 59 | 1017.2 |
| 20260902165541 | 90 | 88 | 0.0 | 7.0 | 0.00 | 0.00 | 0.00 | 61 | 1017.4 |
| 20260902165039 | 90 | 50 | 3.0 | 7.0 | 0.00 | 0.00 | 0.00 | 61 | 1017.4 |
| 20260902164605 | 91 | 0 | 1.0 | 6.0 | 0.00 | 0.00 | 0.00 | 59 | 1017.5 |
| 20260902164037 | 91 | 205 | 1.0 | 3.0 | 0.00 | 0.00 | 0.00 | 59 | 1017.6 |
| 20260902163540 | 90 | 86 | 1.0 | 7.0 | 0.00 | 0.00 | 0.00 | 61 | 1017.6 |
| 20260902163106 | 90 | 110 | 2.0 | 7.0 | 0.00 | 0.00 | 0.00 | 62 | 1017.6 |
| 20260902162541 | 90 | 0 | 0.0 | 7.0 | 0.00 | 0.00 | 0.00 | 63 | 1017.7 |
| 20260902162044 | 89 | 72 | 2.0 | 7.0 | 0.00 | 0.00 | 0.00 | 62 | 1017.8 |
| 20260902161603 | 89 | 207 | 1.0 | 5.0 | 0.00 | 0.00 | 0.00 | 64 | 1017.8 |
| 20260902161043 | 89 | 68 | 1.0 | 5.0 | 0.00 | 0.00 | 0.00 | 64 | 1017.7 |
| 20260902160540 | 89 | 86 | 1.0 | 4.0 | 0.00 | 0.00 | 0.00 | 64 | 1017.6 |
| 20260902160105 | 89 | 106 | 1.0 | 4.0 | 0.00 | 0.00 | 0.00 | 64 | 1017.7 |
| 20260902155541 | 89 | 161 | 1.0 | 4.0 | 0.00 | 0.00 | 0.00 | 64 | 1017.8 |
| 20260902155038 | 89 | 266 | 0.0 | 2.0 | 0.00 | 0.00 | 0.00 | 64 | 1017.8 |
| 20260902154559 | 88 | 113 | 0.0 | 4.0 | 0.00 | 0.00 | 0.00 | 66 | 1017.8 |
| 20260902154037 | 88 | 79 | 2.0 | 4.0 | 0.00 | 0.00 | 0.00 | 66 | 1017.7 |
| 20260902153541 | 88 | 110 | 0.0 | 4.0 | 0.00 | 0.00 | 0.00 | 66 | 1017.8 |
| 20260902153101 | 87 | 161 | 0.0 | 4.0 | 0.00 | 0.00 | 0.00 | 67 | 1017.7 |
| 20260902152541 | 87 | 98 | 0.0 | 4.0 | 0.00 | 0.00 | 0.00 | 66 | 1017.8 |
| 20260902152039 | 86 | 65 | 2.0 | 4.0 | 0.00 | 0.00 | 0.00 | 68 | 1017.8 |
| 20260902151602 | 86 | 66 | 0.0 | 3.0 | 0.00 | 0.00 | 0.00 | 69 | 1017.8 |
| 20260902151040 | 86 | 63 | 1.0 | 3.0 | 0.00 | 0.00 | 0.00 | 69 | 1017.8 |
| 20260902150540 | 85 | 0 | 0.0 | 2.0 | 0.00 | 0.00 | 0.00 | 71 | 1017.8 |
| 20260902150059 | 85 | 79 | 0.0 | 2.0 | 0.00 | 0.00 | 0.00 | 71 | 1017.6 |
| 20260902145541 | 85 | 194 | 0.0 | 1.0 | 0.00 | 0.00 | 0.00 | 72 | 1017.7 |
| 20260902145040 | 85 | 172 | 0.0 | 2.0 | 0.00 | 0.00 | 0.00 | 72 | 1017.7 |
| 20260902144604 | 85 | 0 | 0.0 | 2.0 | 0.00 | 0.00 | 0.00 | 72 | 1017.7 |
| 20260902144040 | 84 | 90 | 0.0 | 3.0 | 0.00 | 0.00 | 0.00 | 72 | 1017.8 |
| 20260902143537 | 84 | 20 | 1.0 | 3.0 | 0.00 | 0.00 | 0.00 | 72 | 1017.7 |
| 20260902143103 | 84 | 160 | 0.0 | 2.0 | 0.00 | 0.00 | 0.00 | 73 | 1017.7 |
| 20260902142540 | 84 | 203 | 0.0 | 2.0 | 0.00 | 0.00 | 0.00 | 73 | 1017.6 |
| 20260902142043 | 83 | 0 | 0.0 | 1.0 | 0.00 | 0.00 | 0.00 | 74 | 1017.6 |
| 20260902141558 | 84 | 191 | 0.0 | 2.0 | 0.00 | 0.00 | 0.00 | 74 | 1017.6 |
| 20260902141042 | 84 | 97 | 0.0 | 2.0 | 0.00 | 0.00 | 0.00 | 73 | 1017.6 |
| 20260902140539 | 83 | 0 | 0.0 | 3.0 | 0.00 | 0.00 | 0.00 | 74 | 1017.5 |
| 20260902140057 | 83 | 104 | 0.0 | 3.0 | 0.00 | 0.00 | 0.00 | 74 | 1017.6 |
| 20260902135538 | 83 | 97 | 0.0 | 4.0 | 0.00 | 0.00 | 0.00 | 74 | 1017.6 |
| 20260902135037 | 83 | 0 | 1.0 | 4.0 | 0.00 | 0.00 | 0.00 | 73 | 1017.5 |
| 20260902134607 | 83 | 104 | 1.0 | 5.0 | 0.00 | 0.00 | 0.00 | 72 | 1017.5 |
| 20260902134038 | 83 | 86 | 1.0 | 5.0 | 0.00 | 0.00 | 0.00 | 72 | 1017.4 |
| 20260902133539 | 84 | 84 | 0.0 | 4.0 | 0.00 | 0.00 | 0.00 | 72 | 1017.4 |
| 20260902133107 | 83 | 75 | 0.0 | 4.0 | 0.00 | 0.00 | 0.00 | 73 | 1017.3 |
| 20260902132538 | 83 | 75 | 1.0 | 4.0 | 0.00 | 0.00 | 0.00 | 72 | 1017.3 |
| 20260902132043 | 83 | 0 | 0.0 | 1.0 | 0.00 | 0.00 | 0.00 | 73 | 1017.3 |
| 20260902131600 | 82 | 104 | 0.0 | 2.0 | 0.00 | 0.00 | 0.00 | 74 | 1017.3 |
| 20260902131040 | 82 | 104 | 0.0 | 2.0 | 0.00 | 0.00 | 0.00 | 75 | 1017.2 |
| 20260902130540 | 82 | 94 | 0.0 | 2.0 | 0.00 | 0.00 | 0.00 | 75 | 1017.2 |
| 20260902130059 | 81 | 70 | 0.0 | 2.0 | 0.00 | 0.00 | 0.00 | 76 | 1017.2 |
| 20260902125541 | 81 | 0 | 0.0 | 2.0 | 0.00 | 0.00 | 0.00 | 77 | 1017.3 |
| 20260902125037 | 80 | 109 | 0.0 | 1.0 | 0.00 | 0.00 | 0.00 | 77 | 1017.2 |
| 20260902124602 | 80 | 0 | 0.0 | 0.0 | 0.00 | 0.00 | 0.00 | 79 | 1017.1 |
| 20260902124041 | 79 | 0 | 0.0 | 0.0 | 0.00 | 0.00 | 0.00 | 79 | 1017.1 |
| 20260902123540 | 78 | 0 | 0.0 | 0.0 | 0.00 | 0.00 | 0.00 | 80 | 1017.1 |
| 20260902123106 | 77 | 0 | 0.0 | 0.0 | 0.00 | 0.00 | 0.00 | 82 | 1017.0 |
| 20260902122540 | 76 | 0 | 0.0 | 0.0 | 0.00 | 0.00 | 0.00 | 82 | 1017.0 |
| 20260902122042 | 76 | 0 | 0.0 | 1.0 | 0.00 | 0.00 | 0.00 | 83 | 1017.0 |
| 20260902121559 | 76 | 0 | 0.0 | 1.0 | 0.00 | 0.00 | 0.00 | 83 | 1016.9 |
| 20260902121039 | 76 | 0 | 0.0 | 1.0 | 0.00 | 0.00 | 0.00 | 83 | 1016.8 |
| 20260902120538 | 75 | 0 | 0.0 | 0.0 | 0.00 | 0.00 | 0.00 | 84 | 1016.8 |
| 20260902120058 | 75 | 0 | 0.0 | 0.0 | 0.00 | 0.00 | 0.00 | 84 | 1016.7 |
| 20260902115538 | 75 | 0 | 0.0 | 1.0 | 0.00 | 0.00 | 0.00 | 84 | 1016.7 |
| 20260902115038 | 75 | 0 | 0.0 | 1.0 | 0.00 | 0.00 | 0.00 | 84 | 1016.7 |
| 20260902114601 | 75 | 0 | 0.0 | 0.0 | 0.00 | 0.00 | 0.00 | 84 | 1016.7 |
| 20260902114041 | 75 | 0 | 0.0 | 0.0 | 0.00 | 0.00 | 0.00 | 84 | 1016.7 |
| 20260902113539 | 75 | 0 | 0.0 | 0.0 | 0.00 | 0.00 | 0.00 | 84 | 1016.9 |
| 20260902113106 | 75 | 0 | 0.0 | 0.0 | 0.00 | 0.00 | 0.00 | 84 | 1016.9 |
| 20260902112543 | 75 | 0 | 0.0 | 0.0 | 0.00 | 0.00 | 0.00 | 84 | 1016.9 |
| 20260902112041 | 75 | 0 | 0.0 | 0.0 | 0.00 | 0.00 | 0.00 | 84 | 1016.9 |
| 20260902111606 | 75 | 0 | 0.0 | 0.0 | 0.00 | 0.00 | 0.00 | 84 | 1017.0 |
| 20260902111039 | 75 | 0 | 0.0 | 0.0 | 0.00 | 0.00 | 0.00 | 84 | 1016.9 |
| 20260902110544 | 75 | 0 | 0.0 | 0.0 | 0.00 | 0.00 | 0.00 | 84 | 1016.8 |
| 20260902105540 | 76 | 0 | 0.0 | 0.0 | 0.00 | 0.00 | 0.00 | 83 | 1016.7 |
| 20260902105037 | 76 | 0 | 0.0 | 0.0 | 0.00 | 0.00 | 0.00 | 83 | 1016.7 |
| 20260902104616 | 76 | 0 | 0.0 | 0.0 | 0.00 | 0.00 | 0.00 | 83 | 1016.8 |
| 20260902104038 | 76 | 0 | 0.0 | 0.0 | 0.00 | 0.00 | 0.00 | 83 | 1016.8 |
| 20260902103539 | 76 | 0 | 0.0 | 0.0 | 0.00 | 0.00 | 0.00 | 82 | 1016.7 |
| 20260902103105 | 76 | 0 | 0.0 | 0.0 | 0.00 | 0.00 | 0.00 | 82 | 1016.7 |
| 20260902102540 | 76 | 0 | 0.0 | 0.0 | 0.00 | 0.00 | 0.00 | 82 | 1016.7 |
| 20260902102040 | 76 | 0 | 0.0 | 0.0 | 0.00 | 0.00 | 0.00 | 82 | 1016.8 |
| 20260902101559 | 76 | 0 | 0.0 | 0.0 | 0.00 | 0.00 | 0.00 | 82 | 1016.8 |
| 20260902101037 | 76 | 0 | 0.0 | 0.0 | 0.00 | 0.00 | 0.00 | 82 | 1016.9 |
| 20260902100537 | 76 | 0 | 0.0 | 0.0 | 0.00 | 0.00 | 0.00 | 81 | 1016.8 |
| 20260902100057 | 77 | 0 | 0.0 | 0.0 | 0.00 | 0.00 | 0.00 | 81 | 1016.8 |
| 20260902095538 | 77 | 0 | 0.0 | 0.0 | 0.00 | 0.00 | 0.00 | 81 | 1016.9 |
| 20260902095038 | 77 | 0 | 0.0 | 0.0 | 0.00 | 0.00 | 0.00 | 81 | 1016.8 |
| 20260902094553 | 77 | 0 | 0.0 | 0.0 | 0.00 | 0.00 | 0.00 | 81 | 1016.8 |
| 20260902094037 | 77 | 0 | 0.0 | 0.0 | 0.00 | 0.00 | 0.00 | 81 | 1016.8 |
| 20260902093540 | 77 | 0 | 0.0 | 0.0 | 0.00 | 0.00 | 0.00 | 81 | 1016.7 |
| 20260902093106 | 77 | 0 | 0.0 | 0.0 | 0.00 | 0.00 | 0.00 | 80 | 1016.6 |
| 20260902092541 | 77 | 0 | 0.0 | 0.0 | 0.00 | 0.00 | 0.00 | 80 | 1016.6 |
| 20260902092039 | 77 | 0 | 0.0 | 0.0 | 0.00 | 0.00 | 0.00 | 80 | 1016.6 |
| 20260902091606 | 77 | 0 | 0.0 | 0.0 | 0.00 | 0.00 | 0.00 | 80 | 1016.7 |
| 20260902091037 | 78 | 0 | 0.0 | 0.0 | 0.00 | 0.00 | 0.00 | 80 | 1016.6 |
| 20260902090541 | 78 | 0 | 0.0 | 0.0 | 0.00 | 0.00 | 0.00 | 79 | 1016.6 |
| 20260902090119 | 78 | 0 | 0.0 | 0.0 | 0.00 | 0.00 | 0.00 | 79 | 1016.5 |
| 20260902085539 | 78 | 0 | 0.0 | 0.0 | 0.00 | 0.00 | 0.00 | 79 | 1016.4 |
| 20260902085040 | 78 | 0 | 0.0 | 0.0 | 0.00 | 0.00 | 0.00 | 79 | 1016.5 |
| 20260902084601 | 78 | 0 | 0.0 | 0.0 | 0.00 | 0.00 | 0.00 | 78 | 1016.4 |
| 20260902084039 | 78 | 0 | 0.0 | 0.0 | 0.00 | 0.00 | 0.00 | 78 | 1016.4 |
| 20260902083539 | 79 | 0 | 0.0 | 0.0 | 0.00 | 0.00 | 0.00 | 78 | 1016.4 |
| 20260902083055 | 79 | 0 | 0.0 | 0.0 | 0.00 | 0.00 | 0.00 | 78 | 1016.4 |
| 20260902082537 | 79 | 0 | 0.0 | 0.0 | 0.00 | 0.00 | 0.00 | 78 | 1016.4 |
| 20260902082040 | 79 | 0 | 0.0 | 0.0 | 0.00 | 0.00 | 0.00 | 77 | 1016.4 |
| 20260902081605 | 79 | 0 | 0.0 | 0.0 | 0.00 | 0.00 | 0.00 | 77 | 1016.5 |
| 20260902081037 | 79 | 0 | 0.0 | 0.0 | 0.00 | 0.00 | 0.00 | 77 | 1016.5 |
| 20260902080537 | 79 | 0 | 0.0 | 0.0 | 0.00 | 0.00 | 0.00 | 77 | 1016.5 |
| 20260902075539 | 79 | 0 | 0.0 | 0.0 | 0.00 | 0.00 | 0.00 | 77 | 1016.5 |
| 20260902075036 | 80 | 0 | 0.0 | 0.0 | 0.00 | 0.00 | 0.00 | 77 | 1016.4 |
| 20260902074609 | 80 | 0 | 0.0 | 0.0 | 0.00 | 0.00 | 0.00 | 77 | 1016.5 |
| 20260902074039 | 80 | 0 | 0.0 | 0.0 | 0.00 | 0.00 | 0.00 | 77 | 1016.5 |
| 20260902073540 | 80 | 0 | 0.0 | 0.0 | 0.00 | 0.00 | 0.00 | 77 | 1016.6 |
| 20260902073056 | 80 | 0 | 0.0 | 0.0 | 0.00 | 0.00 | 0.00 | 76 | 1016.6 |
| 20260902072538 | 80 | 0 | 0.0 | 0.0 | 0.00 | 0.00 | 0.00 | 76 | 1016.6 |
| 20260902072040 | 80 | 0 | 0.0 | 0.0 | 0.00 | 0.00 | 0.00 | 75 | 1016.6 |
| 20260902071558 | 80 | 0 | 0.0 | 0.0 | 0.00 | 0.00 | 0.00 | 75 | 1016.6 |
| 20260902071037 | 81 | 0 | 0.0 | 0.0 | 0.00 | 0.00 | 0.00 | 75 | 1016.6 |
| 20260902070539 | 81 | 0 | 0.0 | 0.0 | 0.00 | 0.00 | 0.00 | 75 | 1016.7 |
| 20260902065541 | 81 | 0 | 0.0 | 0.0 | 0.00 | 0.00 | 0.00 | 74 | 1016.7 |
| 20260902065037 | 81 | 0 | 0.0 | 0.0 | 0.00 | 0.00 | 0.00 | 74 | 1016.7 |
| 20260902064558 | 82 | 0 | 0.0 | 0.0 | 0.00 | 0.00 | 0.00 | 74 | 1016.6 |
| 20260902064039 | 82 | 0 | 0.0 | 0.0 | 0.00 | 0.00 | 0.00 | 73 | 1016.6 |
| 20260902063539 | 82 | 0 | 0.0 | 0.0 | 0.00 | 0.00 | 0.00 | 73 | 1016.7 |
| 20260902063055 | 82 | 0 | 0.0 | 0.0 | 0.00 | 0.00 | 0.00 | 73 | 1016.6 |
| 20260902062543 | 82 | 0 | 0.0 | 1.0 | 0.00 | 0.00 | 0.00 | 73 | 1016.6 |
| 20260902062039 | 82 | 0 | 0.0 | 1.0 | 0.00 | 0.00 | 0.00 | 73 | 1016.6 |
| 20260902061037 | 83 | 0 | 0.0 | 1.0 | 0.00 | 0.00 | 0.00 | 72 | 1016.5 |
| 20260902060538 | 83 | 0 | 0.0 | 1.0 | 0.00 | 0.00 | 0.00 | 72 | 1016.5 |
| 20260902060107 | 83 | 0 | 0.0 | 0.0 | 0.00 | 0.00 | 0.00 | 72 | 1016.6 |
| 20260902055539 | 83 | 0 | 0.0 | 0.0 | 0.00 | 0.00 | 0.00 | 71 | 1016.6 |
| 20260902055039 | 83 | 0 | 0.0 | 1.0 | 0.00 | 0.00 | 0.00 | 71 | 1016.6 |
| 20260902054611 | 83 | 0 | 0.0 | 1.0 | 0.00 | 0.00 | 0.00 | 71 | 1016.5 |
| 20260902054039 | 84 | 0 | 0.0 | 0.0 | 0.00 | 0.00 | 0.00 | 70 | 1016.6 |
| 20260902053539 | 84 | 0 | 0.0 | 1.0 | 0.00 | 0.00 | 0.00 | 70 | 1016.6 |
| 20260902053109 | 84 | 0 | 0.0 | 1.0 | 0.00 | 0.00 | 0.00 | 70 | 1016.5 |
| 20260902052538 | 84 | 0 | 0.0 | 1.0 | 0.00 | 0.00 | 0.00 | 69 | 1016.6 |
| 20260902052039 | 84 | 124 | 0.0 | 1.0 | 0.00 | 0.00 | 0.00 | 69 | 1016.6 |
| 20260902051603 | 84 | 0 | 0.0 | 1.0 | 0.00 | 0.00 | 0.00 | 69 | 1016.5 |
| 20260902051039 | 84 | 0 | 0.0 | 1.0 | 0.00 | 0.00 | 0.00 | 69 | 1016.4 |
| 20260902050539 | 84 | 0 | 0.0 | 1.0 | 0.00 | 0.00 | 0.00 | 69 | 1016.5 |
| 20260902050105 | 85 | 0 | 0.0 | 1.0 | 0.00 | 0.00 | 0.00 | 68 | 1016.4 |
| 20260902045541 | 85 | 0 | 0.0 | 1.0 | 0.00 | 0.00 | 0.00 | 68 | 1016.5 |
| 20260902045036 | 85 | 0 | 0.0 | 0.0 | 0.00 | 0.00 | 0.00 | 68 | 1016.5 |
| 20260902044559 | 85 | 0 | 0.0 | 1.0 | 0.00 | 0.00 | 0.00 | 67 | 1016.4 |
| 20260902044039 | 85 | 0 | 0.0 | 1.0 | 0.00 | 0.00 | 0.00 | 67 | 1016.4 |
| 20260902043539 | 85 | 205 | 0.0 | 1.0 | 0.00 | 0.00 | 0.00 | 67 | 1016.4 |
| 20260902043109 | 85 | 0 | 0.0 | 1.0 | 0.00 | 0.00 | 0.00 | 67 | 1016.5 |
| 20260902042539 | 86 | 120 | 0.0 | 2.0 | 0.00 | 0.00 | 0.00 | 66 | 1016.5 |
| 20260902042040 | 86 | 0 | 0.0 | 2.0 | 0.00 | 0.00 | 0.00 | 66 | 1016.5 |
| 20260902041601 | 86 | 191 | 0.0 | 2.0 | 0.00 | 0.00 | 0.00 | 66 | 1016.4 |
| 20260902041041 | 86 | 199 | 0.0 | 2.0 | 0.00 | 0.00 | 0.00 | 65 | 1016.4 |
| 20260902040540 | 86 | 166 | 0.0 | 2.0 | 0.00 | 0.00 | 0.00 | 65 | 1016.4 |
| 20260902040104 | 86 | 137 | 0.0 | 2.0 | 0.00 | 0.00 | 0.00 | 65 | 1016.5 |
| 20260902035539 | 86 | 0 | 0.0 | 3.0 | 0.00 | 0.00 | 0.00 | 64 | 1016.4 |
| 20260902035039 | 86 | 198 | 0.0 | 3.0 | 0.00 | 0.00 | 0.00 | 64 | 1016.4 |
| 20260902034603 | 86 | 154 | 0.0 | 3.0 | 0.00 | 0.00 | 0.00 | 63 | 1016.3 |
| 20260902034042 | 86 | 188 | 0.0 | 3.0 | 0.00 | 0.00 | 0.00 | 63 | 1016.3 |
| 20260902033540 | 86 | 186 | 0.0 | 2.0 | 0.00 | 0.00 | 0.00 | 63 | 1016.3 |
| 20260902033058 | 86 | 191 | 0.0 | 3.0 | 0.00 | 0.00 | 0.00 | 63 | 1016.2 |
| 20260902032538 | 86 | 103 | 0.0 | 4.0 | 0.00 | 0.00 | 0.00 | 63 | 1016.2 |
| 20260902032039 | 86 | 189 | 1.0 | 4.0 | 0.00 | 0.00 | 0.00 | 63 | 1016.0 |
| 20260902031605 | 85 | 0 | 0.0 | 0.0 | 0.00 | 0.00 | 0.00 | 64 | 1015.9 |
| 20260902031037 | 85 | 0 | 0.0 | 0.0 | 0.00 | 0.00 | 0.00 | 63 | 1015.6 |
| 20260902030536 | 85 | 0 | 0.0 | 0.0 | 0.00 | 0.00 | 0.00 | 63 | 1015.6 |
| 20260902030058 | 86 | 0 | 0.0 | 0.0 | 0.00 | 0.00 | 0.00 | 63 | 1015.4 |
| 20260902025541 | 86 | 0 | 0.0 | 0.0 | 0.00 | 0.00 | 0.00 | 63 | 1015.5 |
| 20260902025040 | 86 | 0 | 0.0 | 0.0 | 0.00 | 0.00 | 0.00 | 62 | 1015.4 |
| 20260902024559 | 86 | 0 | 0.0 | 0.0 | 0.00 | 0.00 | 0.00 | 62 | 1015.3 |
| 20260902024039 | 86 | 0 | 0.0 | 0.0 | 0.00 | 0.00 | 0.00 | 62 | 1015.2 |
| 20260902023539 | 86 | 0 | 0.0 | 0.0 | 0.00 | 0.00 | 0.00 | 62 | 1015.1 |
| 20260902023108 | 87 | 0 | 0.0 | 0.0 | 0.00 | 0.00 | 0.00 | 62 | 1015.1 |
| 20260902022620 | 87 | 0 | 0.0 | 0.0 | 0.00 | 0.00 | 0.00 | 62 | 1014.9 |
| 20260902022039 | 87 | 0 | 0.0 | 0.0 | 0.00 | 0.00 | 0.00 | 61 | 1014.9 |
| 20260902021601 | 87 | 0 | 0.0 | 0.0 | 0.00 | 0.00 | 0.00 | 60 | 1014.9 |
| 20260902021040 | 87 | 0 | 0.0 | 0.0 | 0.00 | 0.00 | 0.00 | 60 | 1014.8 |
| 20260902020537 | 87 | 0 | 0.0 | 0.0 | 0.00 | 0.00 | 0.00 | 60 | 1014.8 |
| 20260902020058 | 87 | 0 | 0.0 | 0.0 | 0.00 | 0.00 | 0.00 | 60 | 1014.7 |
| 20260902015540 | 88 | 0 | 0.0 | 0.0 | 0.00 | 0.00 | 0.00 | 60 | 1014.8 |
| 20260902015040 | 88 | 0 | 0.0 | 0.0 | 0.00 | 0.00 | 0.00 | 59 | 1014.7 |
| 20260902014559 | 88 | 0 | 0.0 | 0.0 | 0.00 | 0.00 | 0.00 | 59 | 1014.7 |
| 20260902014039 | 88 | 0 | 0.0 | 0.0 | 0.00 | 0.00 | 0.00 | 58 | 1014.7 |
| 20260902013536 | 89 | 0 | 0.0 | 0.0 | 0.00 | 0.00 | 0.00 | 58 | 1014.6 |
| 20260902013107 | 89 | 0 | 0.0 | 0.0 | 0.00 | 0.00 | 0.00 | 58 | 1014.5 |
| 20260902012539 | 89 | 0 | 0.0 | 0.0 | 0.00 | 0.00 | 0.00 | 57 | 1014.6 |
| 20260902012039 | 90 | 0 | 0.0 | 0.0 | 0.00 | 0.00 | 0.00 | 56 | 1014.5 |
| 20260902011608 | 90 | 0 | 0.0 | 0.0 | 0.00 | 0.00 | 0.00 | 56 | 1014.6 |
| 20260902011039 | 91 | 0 | 0.0 | 0.0 | 0.00 | 0.00 | 0.00 | 55 | 1014.5 |
| 20260902010538 | 91 | 0 | 0.0 | 0.0 | 0.00 | 0.00 | 0.00 | 55 | 1014.5 |
| 20260902010107 | 91 | 0 | 0.0 | 0.0 | 0.00 | 0.00 | 0.00 | 54 | 1014.5 |
| 20260902005536 | 91 | 0 | 0.0 | 0.0 | 0.00 | 0.00 | 0.00 | 54 | 1014.4 |
| 20260902005037 | 92 | 0 | 0.0 | 0.0 | 0.00 | 0.00 | 0.00 | 53 | 1014.4 |
| 20260902004559 | 92 | 0 | 0.0 | 0.0 | 0.00 | 0.00 | 0.00 | 52 | 1014.4 |
| 20260902004039 | 93 | 0 | 0.0 | 0.0 | 0.00 | 0.00 | 0.00 | 52 | 1014.4 |
| 20260902003539 | 93 | 0 | 0.0 | 0.0 | 0.00 | 0.00 | 0.00 | 51 | 1014.4 |
| 20260902003107 | 93 | 0 | 0.0 | 1.0 | 0.00 | 0.00 | 0.00 | 50 | 1014.3 |
| 20260902002539 | 93 | 0 | 0.0 | 1.0 | 0.00 | 0.00 | 0.00 | 50 | 1014.4 |
| 20260902002039 | 94 | 0 | 0.0 | 1.0 | 0.00 | 0.00 | 0.00 | 50 | 1014.4 |
| 20260902001620 | 94 | 0 | 0.0 | 1.0 | 0.00 | 0.00 | 0.00 | 49 | 1014.4 |
| 20260902001043 | 94 | 94 | 0.0 | 1.0 | 0.00 | 0.00 | 0.00 | 49 | 1014.5 |
| 20260902000539 | 94 | 0 | 0.0 | 3.0 | 0.00 | 0.00 | 0.00 | 49 | 1014.5 |
| 20260902000104 | 94 | 89 | 0.0 | 3.0 | 0.00 | 0.00 | 0.00 | 49 | 1014.5 |
| 20260901235542 | 94 | 66 | 1.0 | 3.0 | 0.00 | 0.00 | 0.00 | 48 | 1014.5 |
| 20260901235040 | 95 | 101 | 1.0 | 4.0 | 0.00 | 0.00 | 0.00 | 48 | 1014.6 |
| 20260901234558 | 95 | 94 | 1.0 | 4.0 | 0.00 | 0.00 | 0.00 | 48 | 1014.6 |
| 20260901234043 | 95 | 283 | 2.0 | 4.0 | 0.00 | 0.00 | 0.00 | 48 | 1014.7 |
| 20260901233539 | 95 | 79 | 1.0 | 8.0 | 0.00 | 0.00 | 0.00 | 47 | 1014.7 |
| 20260901233057 | 95 | 125 | 1.0 | 8.0 | 0.00 | 0.00 | 0.00 | 47 | 1014.7 |
| 20260901232539 | 95 | 113 | 2.0 | 8.0 | 0.00 | 0.00 | 0.00 | 46 | 1014.7 |
| 20260901232039 | 96 | 124 | 1.0 | 6.0 | 0.00 | 0.00 | 0.00 | 47 | 1014.8 |
| 20260901231607 | 96 | 94 | 0.0 | 6.0 | 0.00 | 0.00 | 0.00 | 47 | 1014.8 |
| 20260901231036 | 96 | 54 | 1.0 | 6.0 | 0.00 | 0.00 | 0.00 | 47 | 1014.7 |
| 20260901230537 | 96 | 84 | 2.0 | 7.0 | 0.00 | 0.00 | 0.00 | 46 | 1014.9 |
| 20260901230058 | 96 | 145 | 1.0 | 7.0 | 0.00 | 0.00 | 0.00 | 46 | 1014.7 |
| 20260901225537 | 96 | 89 | 2.0 | 7.0 | 0.00 | 0.00 | 0.00 | 46 | 1014.8 |
| 20260901225037 | 96 | 60 | 1.0 | 8.0 | 0.00 | 0.00 | 0.00 | 47 | 1014.9 |
| 20260901224601 | 95 | 95 | 1.0 | 8.0 | 0.00 | 0.00 | 0.00 | 47 | 1014.9 |
| 20260901224039 | 96 | 96 | 2.0 | 6.0 | 0.00 | 0.00 | 0.00 | 47 | 1014.8 |
| 20260901223539 | 96 | 93 | 2.0 | 6.0 | 0.00 | 0.00 | 0.00 | 46 | 1014.7 |
| 20260901223101 | 96 | 44 | 2.0 | 6.0 | 0.00 | 0.00 | 0.00 | 46 | 1014.7 |
| 20260901222539 | 96 | 115 | 2.0 | 7.0 | 0.00 | 0.00 | 0.00 | 46 | 1014.8 |
| 20260901222040 | 96 | 113 | 2.0 | 8.0 | 0.00 | 0.00 | 0.00 | 46 | 1014.8 |
| 20260901221621 | 97 | 81 | 4.0 | 8.0 | 0.00 | 0.00 | 0.00 | 45 | 1014.8 |
| 20260901221038 | 98 | 311 | 2.0 | 6.0 | 0.00 | 0.00 | 0.00 | 44 | 1014.7 |
| 20260901220538 | 98 | 85 | 1.0 | 7.0 | 0.00 | 0.00 | 0.00 | 44 | 1014.8 |
| 20260901220115 | 98 | 25 | 3.0 | 7.0 | 0.00 | 0.00 | 0.00 | 45 | 1014.7 |
| 20260901215539 | 97 | 58 | 2.0 | 5.0 | 0.00 | 0.00 | 0.00 | 45 | 1014.7 |
| 20260901215036 | 97 | 31 | 1.0 | 5.0 | 0.00 | 0.00 | 0.00 | 45 | 1014.9 |
| 20260901214604 | 97 | 82 | 1.0 | 4.0 | 0.00 | 0.00 | 0.00 | 45 | 1014.9 |
| 20260901214039 | 98 | 65 | 2.0 | 4.0 | 0.00 | 0.00 | 0.00 | 45 | 1015.0 |
| 20260901213539 | 97 | 63 | 1.0 | 5.0 | 0.00 | 0.00 | 0.00 | 45 | 1015.0 |
| 20260901213101 | 97 | 0 | 2.0 | 5.0 | 0.00 | 0.00 | 0.00 | 45 | 1015.1 |
| 20260901212540 | 97 | 18 | 1.0 | 5.0 | 0.00 | 0.00 | 0.00 | 46 | 1015.0 |
| 20260901212042 | 97 | 139 | 1.0 | 5.0 | 0.00 | 0.00 | 0.00 | 46 | 1015.1 |
| 20260901211600 | 96 | 52 | 2.0 | 4.0 | 0.00 | 0.00 | 0.00 | 46 | 1015.2 |
| 20260901211039 | 97 | 108 | 1.0 | 4.0 | 0.00 | 0.00 | 0.00 | 47 | 1015.4 |
| 20260901210536 | 96 | 134 | 1.0 | 7.0 | 0.00 | 0.00 | 0.00 | 46 | 1015.3 |
| 20260901210059 | 97 | 151 | 0.0 | 7.0 | 0.00 | 0.00 | 0.00 | 47 | 1015.3 |
| 20260901205537 | 97 | 108 | 3.0 | 7.0 | 0.00 | 0.00 | 0.00 | 45 | 1015.4 |
| 20260901205041 | 98 | 127 | 0.0 | 6.0 | 0.00 | 0.00 | 0.00 | 44 | 1015.4 |
| 20260901204557 | 98 | 42 | 1.0 | 6.0 | 0.00 | 0.00 | 0.00 | 44 | 1015.4 |
| 20260901204040 | 98 | 0 | 0.0 | 2.0 | 0.00 | 0.00 | 0.00 | 44 | 1015.5 |
| 20260901203537 | 97 | 0 | 1.0 | 4.0 | 0.00 | 0.00 | 0.00 | 45 | 1015.5 |
| 20260901203104 | 97 | 0 | 1.0 | 6.0 | 0.00 | 0.00 | 0.00 | 45 | 1015.6 |
| 20260901202536 | 97 | 109 | 2.0 | 6.0 | 0.00 | 0.00 | 0.00 | 44 | 1015.7 |
| 20260901202037 | 97 | 91 | 2.0 | 6.0 | 0.00 | 0.00 | 0.00 | 45 | 1015.6 |
| 20260901201600 | 96 | 0 | 0.0 | 2.0 | 0.00 | 0.00 | 0.00 | 46 | 1015.6 |
| 20260901201039 | 96 | 168 | 0.0 | 7.0 | 0.00 | 0.00 | 0.00 | 46 | 1015.7 |
| 20260901200537 | 96 | 39 | 0.0 | 7.0 | 0.00 | 0.00 | 0.00 | 46 | 1015.7 |
| 20260901200058 | 97 | 70 | 2.0 | 7.0 | 0.00 | 0.00 | 0.00 | 46 | 1015.9 |
| 20260901195537 | 98 | 113 | 2.0 | 7.0 | 0.00 | 0.00 | 0.00 | 45 | 1016.0 |
| 20260901195036 | 98 | 113 | 1.0 | 4.0 | 0.00 | 0.00 | 0.00 | 45 | 1016.0 |